KR4BRU Weather Reports


Display with metric or nautical units.
time (UTC)temp
F
wind
direction
speed
MPH
gust
MPH
rain 1hr
in
rain 24hr
in
rain mn
in
humidity
%
barometer
mb
20260906061207 74 56 0.0 1.0 0.00 0.00 0.00 89 1009.7
20260906060206 74 295 1.0 2.0 0.00 0.00 0.00 90 1009.6
20260906055202 74 29 0.0 2.0 0.00 0.00 0.00 89 1009.6
20260906054157 74 309 0.0 1.0 0.00 0.00 0.00 89 1009.5
20260906053155 74 197 0.0 1.0 0.00 0.00 0.00 89 1009.7
20260906052153 74 16 2.0 2.0 0.00 0.00 0.00 89 1009.8
20260906051149 74 240 0.0 1.0 0.00 0.00 0.00 89 1009.6
20260906050145 75 300 0.0 1.0 0.00 0.00 0.00 89 1009.6
20260906045145 75 280 0.0 2.0 0.00 0.00 0.00 89 1009.6
20260906044142 75 265 0.0 2.0 0.00 0.00 0.00 89 1010.0
20260906043139 75 306 0.0 1.0 0.00 0.00 0.00 89 1010.3
20260906042139 75 336 0.0 2.0 0.00 0.00 0.00 89 1010.0
20260906041135 75 314 0.0 1.0 0.00 0.00 0.00 89 1010.1
20260906040132 75 310 0.0 2.0 0.00 0.00 0.00 89 1010.1
20260906035129 76 302 0.0 1.0 0.00 0.00 0.00 89 1010.1
20260906034129 76 308 0.0 1.0 0.00 0.00 0.00 89 1010.0
20260906033126 76 294 0.0 1.0 0.00 0.00 0.00 89 1010.1
20260906032122 76 335 0.0 1.0 0.00 0.00 0.00 89 1010.5
20260906031119 76 47 2.0 2.0 0.00 0.00 0.00 89 1010.1
20260906030119 76 322 0.0 1.0 0.00 0.00 0.00 89 1010.5
20260906025117 77 137 0.0 1.0 0.00 0.00 0.00 89 1010.3
20260906024113 77 304 0.0 0.0 0.00 0.00 0.00 89 1009.9
20260906023109 77 305 0.0 2.0 0.00 0.00 0.00 89 1009.5
20260906022106 77 333 0.0 1.0 0.00 0.00 0.00 89 1009.5
20260906021100 77 314 1.0 2.0 0.00 0.00 0.00 89 1009.5
20260906020100 77 333 0.0 1.0 0.00 0.00 0.00 88 1009.6
20260906015059 77 323 0.0 2.0 0.00 0.00 0.00 89 1009.4
20260906014056 77 326 0.0 1.0 0.00 0.00 0.00 88 1009.3
20260906013052 77 279 0.0 1.0 0.00 0.00 0.00 88 1009.1
20260906012053 77 315 0.0 2.0 0.00 0.00 0.00 88 1008.9
20260906011048 77 308 1.0 2.0 0.00 0.00 0.00 88 1009.0
20260906010046 77 278 0.0 2.0 0.00 0.00 0.00 87 1009.0
20260906005044 78 326 0.0 1.0 0.00 0.00 0.00 87 1008.9
20260906004045 78 321 0.0 1.0 0.00 0.00 0.00 87 1008.8
20260906003042 78 336 1.0 1.0 0.00 0.00 0.00 87 1008.7
20260906002037 78 309 0.0 0.0 0.00 0.00 0.00 86 1008.9
20260906001032 78 312 0.0 2.0 0.00 0.00 0.00 86 1008.8
20260906000030 79 329 0.0 0.0 0.00 0.00 0.00 85 1008.8
20260905235024 79 312 0.0 2.0 0.00 0.00 0.00 84 1009.0
20260905234020 80 322 0.0 1.0 0.00 0.00 0.00 83 1009.0
20260905233021 80 327 0.0 1.0 0.00 0.00 0.00 83 1008.9
20260905232018 80 329 0.0 1.0 0.00 0.00 0.00 83 1009.0
20260905231015 80 311 0.0 1.0 0.00 0.00 0.00 82 1008.6
20260905230012 80 9 1.0 2.0 0.00 0.00 0.00 83 1008.6
20260905225008 81 315 0.0 2.0 0.00 0.00 0.00 84 1008.5
20260905224008 81 302 2.0 2.0 0.00 0.00 0.00 84 1008.5
20260905195921 101 227 2.0 4.0 0.00 0.00 0.00 38 1009.7
20260905194918 101 227 2.0 4.0 0.00 0.00 0.00 38 1009.7
20260905193917 102 43 2.0 3.0 0.00 0.00 0.00 33 1009.3
20260905192913 106 10 1.0 3.0 0.00 0.00 0.00 30 1009.1
20260905191908 105 244 3.0 4.0 0.00 0.00 0.00 32 1009.1
20260905190908 103 272 2.0 2.0 0.00 0.00 0.00 36 1009.0
20260905185904 105 174 2.0 2.0 0.00 0.00 0.00 33 1009.4
20260905184904 104 335 0.0 2.0 0.00 0.00 0.00 32 1009.8
20260905183903 105 198 2.0 3.0 0.00 0.00 0.00 31 1009.5
20260905182859 105 199 0.0 3.0 0.00 0.00 0.00 34 1009.6
20260905181854 103 330 1.0 3.0 0.00 0.00 0.00 34 1009.8
20260905180853 101 262 0.0 2.0 0.00 0.00 0.00 43 1010.1
20260905175849 100 253 2.0 2.0 0.00 0.00 0.00 44 1010.1
20260905174850 100 358 1.0 3.0 0.00 0.00 0.00 37 1010.0
20260905173847 102 26 1.0 3.0 0.00 0.00 0.00 37 1010.0
20260905172843 101 356 2.0 3.0 0.00 0.00 0.00 38 1010.4
20260905171843 104 7 2.0 3.0 0.00 0.00 0.00 35 1010.5
20260905170842 102 321 2.0 3.0 0.00 0.00 0.00 38 1010.7
20260905165837 101 4 2.0 3.0 0.00 0.00 0.00 38 1010.6
20260905164832 101 130 2.0 2.0 0.00 0.00 0.00 43 1010.5
20260905163828 100 349 2.0 2.0 0.00 0.00 0.00 43 1011.0
20260905162826 101 281 0.0 3.0 0.00 0.00 0.00 44 1011.2
20260905161826 99 67 2.0 3.0 0.00 0.00 0.00 45 1011.2
20260905160824 98 347 0.0 3.0 0.00 0.00 0.00 47 1011.1
20260905155819 97 226 1.0 2.0 0.00 0.00 0.00 47 1011.3
20260905154819 98 342 2.0 2.0 0.00 0.00 0.00 45 1011.3
20260905153815 98 253 0.0 3.0 0.00 0.00 0.00 49 1011.6
20260905152811 96 193 3.0 3.0 0.00 0.00 0.00 53 1011.5
20260905151812 95 305 2.0 2.0 0.00 0.00 0.00 55 1011.7
20260905150807 94 56 1.0 3.0 0.00 0.00 0.00 53 1011.7
20260905145804 95 130 0.0 2.0 0.00 0.00 0.00 55 1011.6
20260905144803 92 316 0.0 2.0 0.00 0.00 0.00 61 1011.9
20260905143803 93 305 0.0 2.0 0.00 0.00 0.00 59 1011.8
20260905142803 93 132 2.0 2.0 0.00 0.00 0.00 57 1011.9
20260905141759 92 304 1.0 2.0 0.00 0.00 0.00 60 1011.9
20260905140756 90 273 2.0 2.0 0.00 0.00 0.00 62 1011.9
20260905135755 90 164 0.0 2.0 0.00 0.00 0.00 61 1012.1
20260905134751 89 230 0.0 2.0 0.00 0.00 0.00 63 1012.3
20260905133751 89 112 2.0 3.0 0.00 0.00 0.00 64 1012.0
20260905132745 87 129 0.0 1.0 0.00 0.00 0.00 68 1012.2
20260905131741 86 307 1.0 2.0 0.00 0.00 0.00 73 1012.3
20260905130737 83 301 0.0 2.0 0.00 0.00 0.00 76 1012.5
20260905125732 80 55 0.0 1.0 0.00 0.00 0.00 84 1012.4
20260905124729 79 46 1.0 1.0 0.00 0.00 0.00 85 1012.2
20260905123725 78 130 0.0 1.0 0.00 0.00 0.00 86 1012.0
20260905122722 77 265 0.0 1.0 0.00 0.00 0.00 87 1012.3
20260905121717 77 253 0.0 1.0 0.00 0.00 0.00 87 1012.2
20260905120713 76 72 0.0 2.0 0.00 0.00 0.00 87 1011.9
20260905115707 76 9 0.0 2.0 0.00 0.00 0.00 88 1012.0
20260905114702 76 335 0.0 1.0 0.00 0.00 0.00 88 1012.0
20260905113700 76 38 0.0 1.0 0.00 0.00 0.00 88 1011.8
20260905112656 76 329 0.0 1.0 0.00 0.00 0.00 88 1011.7
20260905111651 76 269 0.0 2.0 0.00 0.00 0.00 88 1011.3
20260905110650 76 322 0.0 1.0 0.00 0.00 0.00 88 1011.4
20260905105646 76 261 0.0 1.0 0.00 0.00 0.00 88 1011.3
20260905104646 76 358 1.0 2.0 0.00 0.00 0.00 88 1011.0
20260905103643 76 109 0.0 2.0 0.00 0.00 0.00 88 1011.0
20260905102640 76 150 0.0 2.0 0.00 0.00 0.00 87 1011.1
20260905101641 76 311 0.0 1.0 0.00 0.00 0.00 87 1011.1
20260905100636 76 34 0.0 1.0 0.00 0.00 0.00 87 1011.2
20260905095630 76 224 0.0 1.0 0.00 0.00 0.00 87 1011.2
20260905094627 77 269 0.0 1.0 0.00 0.00 0.00 87 1011.2
20260905093626 77 301 1.0 2.0 0.00 0.00 0.00 87 1010.9
20260905092622 77 116 0.0 2.0 0.00 0.00 0.00 87 1010.9
20260905091617 77 73 0.0 2.0 0.00 0.00 0.00 87 1010.7
20260905090618 77 14 0.0 1.0 0.00 0.00 0.00 87 1010.7
20260905085618 77 282 0.0 1.0 0.00 0.00 0.00 87 1010.6
20260905084613 77 351 0.0 2.0 0.00 0.00 0.00 87 1010.8
20260905083608 78 306 0.0 1.0 0.00 0.00 0.00 87 1010.8
20260905082606 78 264 0.0 2.0 0.00 0.00 0.00 87 1010.8
20260905081601 78 12 1.0 2.0 0.00 0.00 0.00 87 1010.5
20260905080556 78 303 0.0 2.0 0.00 0.00 0.00 86 1010.7
20260905075550 78 186 0.0 2.0 0.00 0.00 0.00 86 1010.6
20260905074549 78 279 1.0 1.0 0.00 0.00 0.00 86 1010.6
20260905073547 78 0 0.0 1.0 0.00 0.00 0.00 85 1010.7
20260905072547 78 223 1.0 1.0 0.00 0.00 0.00 85 1010.8
20260905071545 78 57 0.0 1.0 0.00 0.00 0.00 84 1010.5
20260905070541 78 288 1.0 2.0 0.00 0.00 0.00 84 1010.7
20260905065540 78 50 0.0 2.0 0.00 0.00 0.00 84 1010.6
20260905064535 79 334 0.0 1.0 0.00 0.00 0.00 83 1010.9
20260905063535 79 91 1.0 1.0 0.00 0.00 0.00 82 1011.0
20260905062532 79 248 0.0 2.0 0.00 0.00 0.00 82 1010.9
20260905061528 79 320 1.0 2.0 0.00 0.00 0.00 82 1010.8